Weather History for KDOV - January, 2014

Change the Weather History Date:

Friday, January 10, 2014

  Actual Average Record
Temperature  
Mean Temperature 34 °F -  
Max Temperature 41 °F 40 °F - (-1)
Min Temperature 26 °F 25 °F - (-1)
Degree Days  
Heating Degree Days 32    
Moisture  
Dew Point 37 °F    
Average Humidity 100    
Maximum Humidity 100    
Minimum Humidity 99    
Precipitation  
Precipitation 0.55 in - - ()
Sea Level Pressure  
Sea Level Pressure 30.32 in    
Wind  
Wind Speed 4 mph (ENE)    
Max Wind Speed 9 mph    
Max Gust Speed -    
Visibility 2 miles    
Events Fog , Rain    
Averages and records for this station are not official NWS values.
T = Trace of Precipitation, MM = Missing Value Source: NWS Daily Summary

Daily Weather History Graph

Daily Weather History Graph

Search for Another Location

Airport or City:

Trip Planner

Search our weather history database for the weather conditions in past years. The results will help you decide how hot, cold, wet, or windy it might be!

Date:

Astronomy

Jan. 10, 2014 Rise Set
Actual Time 7:20 AM EST 4:58 PM EST
Civil Twilight 6:51 AM EST 5:27 PM EST
Nautical Twilight 6:18 AM EST 6:00 PM EST
Astronomical Twilight 5:45 AM EST 6:33 PM EST
Moon 1:00 PM EST (1/10) 2:26 AM EST (1/10)
Length of Visible Light 10h 36m
Length of Day
9h 37m
Waxing Gibbous, 75% of the Moon is Illuminated
Jan 10
Waxing Gibbous
Jan 15
Full
Jan 24
Last Quarter
Jan 30
New
Feb 6
First Quarter

Hourly Weather History & Observations

Time (EST) Temp. Windchill Dew Point Humidity Pressure Visibility Wind Dir Wind Speed Gust Speed Precip Events Conditions
12:58 AM 26.1 °F 19.4 °F 25.9 °F 99% 30.53 in 10.0 mi North 5.8 mph - N/A   Mostly Cloudy
1:58 AM 28.0 °F 22.8 °F 27.9 °F 99% 30.53 in 10.0 mi NNW 4.6 mph - N/A   Overcast
2:58 AM 29.7 °F 23.7 °F 29.5 °F 99% 30.52 in 10.0 mi North 5.8 mph - N/A   Overcast
3:58 AM 30.4 °F 24.5 °F 30.0 °F 99% 30.48 in 10.0 mi Variable 5.8 mph - N/A   Overcast
4:58 AM 30.9 °F 23.5 °F 30.7 °F 99% 30.47 in 10.0 mi NNW 8.1 mph - N/A   Overcast
5:58 AM 31.5 °F 24.9 °F 31.1 °F 99% 30.45 in 10.0 mi North 6.9 mph - N/A   Overcast
6:07 AM 32.0 °F 24.8 °F 32.0 °F 100% 30.44 in 10.0 mi North 8.1 mph - N/A   Overcast
6:20 AM 32.0 °F 25.6 °F 32.0 °F 100% 30.44 in 10.0 mi Variable 6.9 mph - N/A   Overcast
6:54 AM 32.0 °F 25.6 °F 32.0 °F 100% 30.43 in 10.0 mi North 6.9 mph - N/A Rain Light Rain
6:58 AM 32.2 °F 25.8 °F 32.0 °F 99% 30.45 in 10.0 mi North 6.9 mph - 0.00 in Rain Light Rain
7:58 AM 32.2 °F 27.7 °F 32.0 °F 99% 30.46 in 7.0 mi North 4.6 mph - 0.02 in Rain Light Rain
8:58 AM 33.3 °F 27.9 °F 32.9 °F 99% 30.46 in 6.0 mi North 5.8 mph - 0.05 in Rain Light Rain
9:48 AM 32.0 °F 24.8 °F 32.0 °F 100% 30.47 in 2.5 mi NNW 8.1 mph - N/A Rain Rain
9:58 AM 32.0 °F 26.4 °F 32.0 °F 100% 30.48 in 3.0 mi NNW 5.8 mph - 0.09 in Rain Rain
10:43 AM 33.8 °F - 33.8 °F 100% 30.44 in 2.5 mi ENE 2.3 mph - N/A Rain Light Rain
10:58 AM 35.1 °F - 35.1 °F 100% 30.45 in 2.5 mi Calm Calm - 0.10 in Rain Light Rain
11:13 AM 35.6 °F - 35.6 °F 100% 30.43 in 3.0 mi ENE 2.3 mph - N/A Rain Light Rain
11:18 AM 35.6 °F 30.7 °F 35.6 °F 100% 30.42 in 3.0 mi East 5.8 mph - N/A Rain Light Rain
11:23 AM 35.6 °F 32.8 °F 35.6 °F 100% 30.42 in 2.5 mi East 3.5 mph - N/A Rain Light Rain
11:28 AM 35.6 °F 32.8 °F 35.6 °F 100% 30.41 in 2.5 mi East 3.5 mph - N/A Rain Light Rain
11:33 AM 35.6 °F 31.7 °F 35.6 °F 100% 30.40 in 2.5 mi East 4.6 mph - N/A Rain Light Rain
11:43 AM 35.6 °F 30.7 °F 35.6 °F 100% 30.40 in 2.5 mi ESE 5.8 mph - N/A Rain Light Rain
11:48 AM 35.6 °F 31.7 °F 35.6 °F 100% 30.39 in 3.0 mi ESE 4.6 mph - N/A Rain Light Rain
11:53 AM 35.6 °F 31.7 °F 35.6 °F 100% 30.39 in 3.0 mi East 4.6 mph - N/A Rain Light Rain
11:58 AM 36.0 °F 32.1 °F 36.0 °F 100% 30.40 in 2.5 mi ENE 4.6 mph - 0.08 in Rain Light Rain
12:03 PM 35.6 °F 31.7 °F 35.6 °F 100% 30.38 in 2.5 mi East 4.6 mph - N/A Rain Light Rain
12:08 PM 35.6 °F 28.6 °F 35.6 °F 100% 30.37 in 2.5 mi ESE 9.2 mph - N/A Rain Light Rain
12:13 PM 35.6 °F 29.2 °F 35.6 °F 100% 30.37 in 2.5 mi ESE 8.1 mph - N/A Rain Light Rain
12:18 PM 35.6 °F 30.7 °F 35.6 °F 100% 30.37 in 3.0 mi East 5.8 mph - N/A Rain Light Rain
12:23 PM 35.6 °F - 35.6 °F 100% 30.37 in 2.5 mi Variable 1.2 mph - N/A Rain Light Rain
12:58 PM 37.4 °F - 37.4 °F 100% 30.36 in 2.5 mi Calm Calm - 0.04 in Rain Light Rain
1:08 PM 37.4 °F - 37.4 °F 100% 30.35 in 2.5 mi SE 1.2 mph - N/A Rain Light Rain
1:33 PM 37.4 °F - 37.4 °F 100% 30.35 in 3.0 mi Calm Calm - N/A Rain Light Rain
1:58 PM 38.5 °F - 38.5 °F 100% 30.35 in 3.0 mi Calm Calm - 0.02 in Rain Light Rain
2:13 PM 39.2 °F - 39.2 °F 100% 30.34 in 2.5 mi Calm Calm - N/A   Light Drizzle
2:27 PM 39.2 °F - 39.2 °F 100% 30.33 in 2.5 mi ESE 2.3 mph - N/A   Mostly Cloudy
2:29 PM 39.2 °F - 39.2 °F 100% 30.33 in 2.5 mi ESE 2.3 mph - N/A Rain Light Rain
2:39 PM 39.2 °F - 39.2 °F 100% 30.33 in 1.8 mi Calm Calm - N/A Rain Light Rain
2:54 PM 39.2 °F - 39.2 °F 100% 30.33 in 1.2 mi Calm Calm - N/A Rain Light Rain
2:58 PM 39.7 °F - 39.7 °F 100% 30.34 in 1.2 mi NE 1.2 mph - 0.01 in Rain Light Rain
3:08 PM 39.2 °F 37.0 °F 39.2 °F 100% 30.32 in 0.8 mi East 3.5 mph - N/A   Light Drizzle
3:13 PM 39.2 °F - 39.2 °F 100% 30.32 in 0.5 mi East 2.3 mph - N/A Fog , Rain Light Rain
3:23 PM 39.2 °F 37.0 °F 39.2 °F 100% 30.33 in 0.2 mi ENE 3.5 mph - N/A Fog , Rain Light Rain
3:38 PM 39.2 °F - 39.2 °F 100% 30.32 in 0.5 mi ENE 2.3 mph - N/A Fog , Rain Light Rain
3:43 PM 39.2 °F 37.0 °F 39.2 °F 100% 30.32 in 0.5 mi ENE 3.5 mph - N/A Fog , Rain Light Rain
3:48 PM 39.2 °F 35.9 °F 39.2 °F 100% 30.32 in 0.5 mi ENE 4.6 mph - N/A Fog , Rain Light Rain
3:53 PM 39.2 °F 37.0 °F 39.2 °F 100% 30.32 in 0.8 mi ENE 3.5 mph - N/A Rain Light Rain
3:58 PM 39.0 °F 36.8 °F 39.0 °F 100% 30.33 in 0.8 mi ENE 3.5 mph - 0.03 in Rain Light Rain
4:03 PM 39.2 °F 37.0 °F 39.2 °F 100% 30.32 in 1.0 mi East 3.5 mph - N/A Rain Light Rain
4:08 PM 39.2 °F 35.9 °F 39.2 °F 100% 30.31 in 1.0 mi East 4.6 mph - N/A Rain Light Rain
4:13 PM 39.2 °F 37.0 °F 39.2 °F 100% 30.31 in 1.2 mi East 3.5 mph - N/A Rain Light Rain
4:28 PM 37.4 °F 33.8 °F 37.4 °F 100% 30.31 in 1.0 mi ENE 4.6 mph - N/A Rain Light Rain
4:33 PM 37.4 °F 32.8 °F 37.4 °F 100% 30.31 in 1.0 mi ENE 5.8 mph - N/A Rain Light Rain
4:38 PM 37.4 °F 33.8 °F 37.4 °F 100% 30.30 in 0.8 mi East 4.6 mph - N/A Rain Light Rain
4:43 PM 37.4 °F 33.8 °F 37.4 °F 100% 30.30 in 1.0 mi East 4.6 mph - N/A Rain Light Rain
4:48 PM 37.4 °F 33.8 °F 37.4 °F 100% 30.30 in 1.0 mi East 4.6 mph - N/A Rain Light Rain
4:53 PM 37.4 °F 34.9 °F 37.4 °F 100% 30.30 in 1.2 mi ENE 3.5 mph - N/A Rain Light Rain
4:58 PM 37.4 °F 34.9 °F 37.4 °F 100% 30.31 in 1.2 mi ENE 3.5 mph - 0.04 in Rain Light Rain
5:03 PM 37.4 °F - 37.4 °F 100% 30.30 in 1.2 mi NE 2.3 mph - N/A Rain Light Rain
5:08 PM 37.4 °F - 37.4 °F 100% 30.30 in 2.0 mi NNE 2.3 mph - N/A Rain Light Rain
5:13 PM 37.4 °F 34.9 °F 37.4 °F 100% 30.30 in 2.5 mi North 3.5 mph - N/A Rain Light Rain
5:28 PM 37.4 °F 34.9 °F 37.4 °F 100% 30.30 in 3.0 mi NE 3.5 mph - N/A Rain Light Rain
5:29 PM 37.4 °F 34.9 °F 37.4 °F 100% 30.30 in 4.0 mi NE 3.5 mph - N/A   Overcast
5:44 PM 37.4 °F 34.9 °F 37.4 °F 100% 30.30 in 4.0 mi East 3.5 mph - N/A   Overcast
5:48 PM 37.4 °F 34.9 °F 37.4 °F 100% 30.30 in 4.0 mi ENE 3.5 mph - N/A Rain Light Rain
5:58 PM 37.4 °F - 37.4 °F 100% 30.31 in 3.0 mi ENE 2.3 mph - 0.02 in Rain Light Rain
6:03 PM 37.4 °F 34.9 °F 37.4 °F 100% 30.29 in 2.5 mi ENE 3.5 mph - N/A Rain Light Rain
6:08 PM 37.4 °F 34.9 °F 37.4 °F 100% 30.29 in 2.0 mi East 3.5 mph - N/A Rain Light Rain
6:13 PM 37.4 °F 33.8 °F 37.4 °F 100% 30.29 in 1.8 mi East 4.6 mph - N/A Rain Light Rain
6:18 PM 37.4 °F 33.8 °F 37.4 °F 100% 30.29 in 1.2 mi East 4.6 mph - N/A Rain Light Rain
6:23 PM 37.4 °F 34.9 °F 37.4 °F 100% 30.29 in 1.0 mi East 3.5 mph - N/A Rain Light Rain
6:28 PM 37.4 °F 34.9 °F 37.4 °F 100% 30.29 in 0.8 mi East 3.5 mph - N/A Rain Light Rain
6:33 PM 37.4 °F 34.9 °F 37.4 °F 100% 30.29 in 0.8 mi East 3.5 mph - N/A   Light Drizzle
6:34 PM 37.4 °F 34.9 °F 37.4 °F 100% 30.29 in 0.8 mi East 3.5 mph - N/A   Mist
6:39 PM 37.4 °F 34.9 °F 37.4 °F 100% 30.29 in 0.5 mi East 3.5 mph - N/A Fog Fog
6:42 PM 37.4 °F 34.9 °F 37.4 °F 100% 30.29 in 0.5 mi East 3.5 mph - N/A Fog Light Drizzle
6:58 PM 38.3 °F - 38.3 °F 100% 30.30 in 0.5 mi NNE 1.2 mph - 0.01 in Fog , Rain Light Rain
7:03 PM 39.2 °F - 39.2 °F 100% 30.29 in 0.8 mi ENE 2.3 mph - N/A Rain Light Rain
7:18 PM 39.2 °F - 39.2 °F 100% 30.28 in 1.0 mi ENE 2.3 mph - N/A   Light Drizzle
7:23 PM 39.2 °F 35.9 °F 39.2 °F 100% 30.28 in 1.0 mi ENE 4.6 mph - N/A   Light Drizzle
7:27 PM 39.2 °F 35.9 °F 39.2 °F 100% 30.27 in 1.2 mi East 4.6 mph - N/A   Scattered Clouds
7:47 PM 37.4 °F 34.9 °F 37.4 °F 100% 30.27 in 1.0 mi East 3.5 mph - N/A   Clear
7:57 PM 39.2 °F 35.9 °F 39.2 °F 100% 30.26 in 1.0 mi ENE 4.6 mph - N/A   Partly Cloudy
7:58 PM 38.5 °F 35.0 °F 38.5 °F 100% 30.27 in 1.0 mi ENE 4.6 mph - 0.01 in   Partly Cloudy
8:08 PM 39.2 °F - 39.2 °F 100% 30.26 in 0.8 mi Calm Calm - N/A   Clear
8:20 PM 39.2 °F - 39.2 °F 100% 30.25 in 0.8 mi NE 2.3 mph - N/A Rain Light Rain
8:40 PM 37.4 °F - 37.4 °F 100% 30.25 in 0.8 mi North 2.3 mph - N/A   Light Drizzle
8:58 PM 38.1 °F 35.7 °F 38.1 °F 100% 30.26 in 0.8 mi NNW 3.5 mph - 0.01 in Rain Light Rain
9:03 PM 37.4 °F - 37.4 °F 100% 30.25 in 0.8 mi North 2.3 mph - N/A Rain Light Rain
9:43 PM 39.2 °F 35.9 °F 39.2 °F 100% 30.22 in 0.8 mi NE 4.6 mph - N/A Rain Light Rain
9:48 PM 39.2 °F 35.9 °F 39.2 °F 100% 30.22 in 0.8 mi NE 4.6 mph - N/A Rain Light Rain
9:53 PM 39.2 °F 35.9 °F 39.2 °F 100% 30.21 in 1.0 mi NE 4.6 mph - N/A Rain Light Rain
9:58 PM 38.8 °F 36.5 °F 38.8 °F 100% 30.22 in 1.2 mi ENE 3.5 mph - 0.02 in Rain Light Rain
10:03 PM 39.2 °F 37.0 °F 39.2 °F 100% 30.21 in 1.5 mi ENE 3.5 mph - N/A Rain Light Rain
10:06 PM 39.2 °F 37.0 °F 39.2 °F 100% 30.21 in 2.0 mi East 3.5 mph - N/A   Scattered Clouds
10:16 PM 39.2 °F 35.9 °F 39.2 °F 100% 30.20 in 1.5 mi ENE 4.6 mph - N/A   Scattered Clouds
10:46 PM 39.2 °F 35.0 °F 39.2 °F 100% 30.17 in 1.2 mi ENE 5.8 mph - N/A   Scattered Clouds
10:51 PM 39.2 °F 35.0 °F 39.2 °F 100% 30.17 in 1.0 mi East 5.8 mph - N/A   Mostly Cloudy
10:56 PM 39.2 °F 35.0 °F 39.2 °F 100% 30.17 in 0.8 mi East 5.8 mph - N/A   Mostly Cloudy
10:58 PM 39.0 °F 34.8 °F 39.0 °F 100% 30.18 in 0.8 mi East 5.8 mph - 0.00 in   Mostly Cloudy
11:22 PM 39.2 °F - 39.2 °F 100% 30.16 in 1.0 mi Calm Calm - N/A Rain Light Rain
11:27 PM 39.2 °F - 39.2 °F 100% 30.16 in 0.8 mi East 2.3 mph - N/A Rain Light Rain
11:32 PM 39.2 °F 37.0 °F 39.2 °F 100% 30.15 in 0.8 mi East 3.5 mph - N/A Rain Light Rain
11:37 PM 39.2 °F 35.0 °F 39.2 °F 100% 30.15 in 0.5 mi East 5.8 mph - N/A Fog Fog
11:52 PM 41.0 °F 36.4 °F 41.0 °F 100% 30.14 in 0.8 mi East 6.9 mph - N/A   Scattered Clouds
11:58 PM 40.3 °F 36.3 °F 40.3 °F 100% 30.14 in 1.2 mi East 5.8 mph - 0.00 in   Mostly Cloudy